COSMOS 2493 (SKRL 756)

导读 | 豆包AI

COSMOS 2493(SKRL 756)是独联体(CIS,实际为俄罗斯)于2013年12月28日发射的卫星,隶属于俄罗斯长期运营的“宇宙”(Cosmos)卫星系列。该系列卫星覆盖科研、通信、军事侦察等多类任务,作为军用相关卫星,它主要承担军事通信或侦察任务,依托近地轨道运行,服务于俄罗斯太空战略部署,目前仍在轨发挥相应功能,是俄罗斯航天军事体系的重要组成部分。

Basic Information
目录编号:
39490
目录名称:
COSMOS 2493 (SKRL 756)
国际标识:
2013-078A
轨道中心:
EARTH
卫星名称:
COSMOS 2493 (SKRL 756)
卫星全名:
--
卫星状态:
在轨 (已飞行4459 天)
发射日期:
2013-12-28 UTC
国别 :
俄罗斯(独联体) (CIS)
星等 :
--
Orbit Information
数据来源 国际轨道数据
星历时间: 2026-03-14T06:42:12+0800
12小时前
查看轨道信息
半长轴: 6940.04km
偏心率: 0.0012376
轨道倾角: 82.417°
近地点辐角 199.437°
升交点赤经 354.331°
平近点角 160.639°
近地点: 553.314km
远地点: 570.492km
周期: 95.896分钟
每日圈数: 15.016193
Detailed Information
使用方式:
暂无
2D Orbit Map
3D Orbit Map
Orbit Altitude Analysis Chart
Orbit Inclination Analysis Chart
Orbit Comprehensive Analysis Chart
View Comprehensive Chart